Time,TemperatureF,DewpointF,PressureIn,WindDirection,WindDirectionDegrees,WindSpeedMPH,WindSpeedGustMPH,Humidity,HourlyPrecipIn,Conditions,Clouds,dailyrainin,SoftwareType,DateUTC
2013-01-10 00:03:00,29.3,0.9,30.31,South,180,0.0,0.0,29,0.00,CLR,,0.00,WeatherDisplay:10.37,2013-01-10 05:03:00,
2013-01-10 00:04:00,29.3,0.9,30.32,South,180,0.0,0.0,29,0.00,CLR,,0.00,WeatherDisplay:10.37,2013-01-10 05:04:00,
2013-01-10 00:05:00,29.3,0.9,30.32,South,180,0.0,1.0,29,0.00,CLR,CLR,0.00,WeatherDisplay:10.37,2013-01-10 05:05:00,
2013-01-10 00:10:00,29.1,1.5,30.32,South,180,0.0,0.0,30,0.00,CLR,CLR,0.00,WeatherDisplay:10.37,2013-01-10 05:10:00,
2013-01-10 00:15:00,28.8,0.4,30.30,South,180,0.0,0.0,29,0.00,CLR,,0.00,WeatherDisplay:10.37,2013-01-10 05:15:00,
2013-01-10 00:20:00,28.9,1.3,30.29,South,180,0.0,0.0,30,0.00,CLR,,0.00,WeatherDisplay:10.37,2013-01-10 05:20:00,
2013-01-10 00:25:00,28.8,1.2,30.28,South,180,0.0,0.0,30,0.00,CLR,,0.00,WeatherDisplay:10.37,2013-01-10 05:25:00,
2013-01-10 00:30:00,28.6,1.0,30.29,South,180,0.0,0.0,30,0.00,CLR,,0.00,WeatherDisplay:10.37,2013-01-10 05:30:00,
2013-01-10 00:35:00,28.2,0.7,30.30,South,180,0.0,0.0,30,0.00,CLR,,0.00,WeatherDisplay:10.37,2013-01-10 05:35:00,
2013-01-10 00:40:00,28.2,0.7,30.32,South,180,1.3,1.3,30,0.00,CLR,,0.00,WeatherDisplay:10.37,2013-01-10 05:40:00,
2013-01-10 00:45:00,28.2,0.0,30.33,South,180,1.3,1.3,29,0.00,CLR,,0.00,WeatherDisplay:10.37,2013-01-10 05:45:00,
2013-01-10 00:50:00,28.0,0.5,30.34,South,180,1.3,0.0,30,0.00,CLR,,0.00,WeatherDisplay:10.37,2013-01-10 05:50:00,
2013-01-10 00:55:00,27.9,0.4,30.34,South,180,1.3,0.0,30,0.00,CLR,,0.00,WeatherDisplay:10.37,2013-01-10 05:55:00,
2013-01-10 01:00:00,27.9,0.4,30.34,SSE,157,1.3,0.0,30,0.00,CLR,,0.00,WeatherDisplay:10.37,2013-01-10 06:00:00,
2013-01-10 01:05:00,27.7,0.2,30.33,South,180,1.1,0.0,30,0.00,CLR,,0.00,WeatherDisplay:10.37,2013-01-10 06:05:00,
2013-01-10 01:10:00,27.3,-0.1,30.32,SW,225,1.1,0.0,30,0.00,CLR,,0.00,WeatherDisplay:10.37,2013-01-10 06:10:00,
2013-01-10 01:15:00,27.3,-0.1,30.33,SSW,202,1.1,0.0,30,0.00,CLR,,0.00,WeatherDisplay:10.37,2013-01-10 06:15:00,
2013-01-10 01:20:00,27.3,-1.6,30.34,SSW,202,1.1,0.0,28,0.00,CLR,,0.00,WeatherDisplay:10.37,2013-01-10 06:20:00,
2013-01-10 01:25:00,27.1,-0.3,30.36,SW,225,1.1,0.0,30,0.00,CLR,,0.00,WeatherDisplay:10.37,2013-01-10 06:25:00,
2013-01-10 01:30:00,27.1,-0.3,30.37,SSW,202,1.1,0.0,30,0.00,CLR,,0.00,WeatherDisplay:10.37,2013-01-10 06:30:00,
2013-01-10 01:35:00,27.1,-0.3,30.38,SSW,202,1.1,0.0,30,0.00,CLR,,0.00,WeatherDisplay:10.37,2013-01-10 06:35:00,
2013-01-10 01:40:00,27.1,-0.3,30.38,SSW,202,1.1,0.0,30,0.00,CLR,,0.00,WeatherDisplay:10.37,2013-01-10 06:40:00,
2013-01-10 01:45:00,27.3,-0.1,30.38,SSE,157,1.1,1.1,30,0.00,CLR,,0.00,WeatherDisplay:10.37,2013-01-10 06:45:00,
2013-01-10 01:50:00,27.1,-0.3,30.38,SW,225,1.1,0.0,30,0.00,CLR,,0.00,WeatherDisplay:10.37,2013-01-10 06:50:00,
2013-01-10 01:55:00,27.1,-1.0,30.37,WSW,247,1.1,0.0,29,0.00,CLR,,0.00,WeatherDisplay:10.37,2013-01-10 06:55:00,
2013-01-10 02:00:00,27.1,-1.0,30.38,SE,135,1.1,0.0,29,0.00,CLR,,0.00,WeatherDisplay:10.37,2013-01-10 07:00:00,
2013-01-10 02:05:00,27.3,-0.8,30.39,WSW,247,0.0,0.0,29,0.00,CLR,,0.00,WeatherDisplay:10.37,2013-01-10 07:05:00,
2013-01-10 02:10:00,27.3,-0.8,30.40,SW,225,1.1,1.1,29,0.00,CLR,,0.00,WeatherDisplay:10.37,2013-01-10 07:10:00,
2013-01-10 02:15:00,27.3,-0.8,30.41,WNW,292,1.1,1.3,29,0.00,CLR,,0.00,WeatherDisplay:10.37,2013-01-10 07:15:00,
2013-01-10 02:20:00,27.1,-0.3,30.42,SSW,202,1.3,1.3,30,0.00,CLR,,0.00,WeatherDisplay:10.37,2013-01-10 07:20:00,
2013-01-10 02:25:00,27.3,-0.1,30.43,South,180,2.4,2.4,30,0.00,CLR,,0.00,WeatherDisplay:10.37,2013-01-10 07:25:00,
2013-01-10 02:30:00,27.5,0.1,30.43,WSW,247,2.6,2.6,30,0.00,CLR,,0.00,WeatherDisplay:10.37,2013-01-10 07:30:00,
2013-01-10 02:35:00,27.5,-0.7,30.43,SSW,202,2.6,2.6,29,0.00,CLR,,0.00,WeatherDisplay:10.37,2013-01-10 07:35:00,
2013-01-10 02:40:00,27.5,-1.4,30.43,SSW,202,2.6,0.0,28,0.00,CLR,,0.00,WeatherDisplay:10.37,2013-01-10 07:40:00,
2013-01-10 02:45:00,27.7,-0.5,30.43,SSW,202,2.6,2.6,29,0.00,CLR,,0.00,WeatherDisplay:10.37,2013-01-10 07:45:00,
2013-01-10 02:50:00,27.7,-0.5,30.43,WSW,247,2.6,2.6,29,0.00,CLR,,0.00,WeatherDisplay:10.37,2013-01-10 07:50:00,
2013-01-10 02:55:00,27.7,-0.5,30.44,SSW,202,2.6,2.6,29,0.00,CLR,,0.00,WeatherDisplay:10.37,2013-01-10 07:55:00,
2013-01-10 03:00:00,27.7,-0.5,30.45,SW,225,2.6,2.6,29,0.00,CLR,,0.00,WeatherDisplay:10.37,2013-01-10 08:00:00,
2013-01-10 03:05:00,27.7,-0.5,30.45,West,270,3.5,3.5,29,0.00,CLR,,0.00,WeatherDisplay:10.37,2013-01-10 08:05:00,
2013-01-10 03:10:00,27.7,-0.5,30.46,SW,225,3.5,3.5,29,0.00,CLR,,0.00,WeatherDisplay:10.37,2013-01-10 08:10:00,
2013-01-10 03:15:00,27.7,-0.5,30.46,SW,225,3.5,3.5,29,0.00,CLR,,0.00,WeatherDisplay:10.37,2013-01-10 08:15:00,
2013-01-10 03:20:00,27.7,-0.5,30.45,SW,225,3.5,0.0,29,0.00,CLR,,0.00,WeatherDisplay:10.37,2013-01-10 08:20:00,
2013-01-10 03:25:00,27.7,-0.5,30.45,SW,225,3.5,0.0,29,0.00,CLR,,0.00,WeatherDisplay:10.37,2013-01-10 08:25:00,
2013-01-10 03:30:00,27.7,-1.2,30.43,SSW,202,3.5,0.0,28,0.00,CLR,,0.00,WeatherDisplay:10.37,2013-01-10 08:30:00,
2013-01-10 03:35:00,27.7,-0.5,30.43,South,180,3.5,0.0,29,0.00,CLR,,0.00,WeatherDisplay:10.37,2013-01-10 08:35:00,
2013-01-10 03:40:00,27.7,-0.5,30.44,South,180,3.5,0.0,29,0.00,CLR,,0.00,WeatherDisplay:10.37,2013-01-10 08:40:00,
2013-01-10 03:45:00,27.7,-1.2,30.44,South,180,3.5,0.0,28,0.00,CLR,,0.00,WeatherDisplay:10.37,2013-01-10 08:45:00,
2013-01-10 03:50:00,27.5,-0.7,30.45,South,180,3.5,0.0,29,0.00,CLR,,0.00,WeatherDisplay:10.37,2013-01-10 08:50:00,
2013-01-10 03:55:00,27.5,-0.7,30.45,South,180,3.5,0.0,29,0.00,CLR,,0.00,WeatherDisplay:10.37,2013-01-10 08:55:00,
2013-01-10 04:00:00,27.3,-1.6,30.45,South,180,3.5,0.0,28,0.00,CLR,,0.00,WeatherDisplay:10.37,2013-01-10 09:00:00,
2013-01-10 04:05:00,27.1,-1.0,30.45,South,180,0.0,0.0,29,0.00,CLR,,0.00,WeatherDisplay:10.37,2013-01-10 09:05:00,
2013-01-10 04:10:00,27.0,-1.1,30.44,South,180,0.0,0.0,29,0.00,CLR,,0.00,WeatherDisplay:10.37,2013-01-10 09:10:00,
2013-01-10 04:15:00,26.6,-2.2,30.43,South,180,0.0,0.0,28,0.00,CLR,,0.00,WeatherDisplay:10.37,2013-01-10 09:15:00,
2013-01-10 04:20:00,26.8,-1.3,30.42,South,180,0.0,0.0,29,0.00,CLR,,0.00,WeatherDisplay:10.37,2013-01-10 09:20:00,
2013-01-10 04:25:00,26.8,-1.3,30.43,South,180,0.0,0.0,29,0.00,CLR,,0.00,WeatherDisplay:10.37,2013-01-10 09:25:00,
2013-01-10 04:30:00,26.2,-1.8,30.43,South,180,0.0,0.0,29,0.00,CLR,,0.00,WeatherDisplay:10.37,2013-01-10 09:30:00,
2013-01-10 04:35:00,24.8,-3.8,30.45,NE,45,1.7,1.7,28,0.00,CLR,,0.00,WeatherDisplay:10.37,2013-01-10 09:35:00,
2013-01-10 04:40:00,24.8,-3.8,30.43,ENE,67,1.7,0.0,28,0.00,CLR,,0.00,WeatherDisplay:10.37,2013-01-10 09:40:00,
2013-01-10 04:45:00,24.8,-3.8,30.44,SE,135,1.7,0.0,28,0.00,CLR,,0.00,WeatherDisplay:10.37,2013-01-10 09:45:00,
2013-01-10 04:50:00,24.8,-3.0,30.45,SSE,157,1.7,0.0,29,0.00,CLR,,0.00,WeatherDisplay:10.37,2013-01-10 09:50:00,
2013-01-10 04:55:00,24.8,-3.8,30.44,SSE,157,1.7,0.0,28,0.00,CLR,,0.00,WeatherDisplay:10.37,2013-01-10 09:55:00,
2013-01-10 05:00:00,25.2,-3.4,30.42,SSE,157,1.7,0.0,28,0.00,CLR,,0.00,WeatherDisplay:10.37,2013-01-10 10:00:00,
2013-01-10 05:05:00,25.3,-3.3,30.42,SSE,157,0.0,0.0,28,0.00,CLR,,0.00,WeatherDisplay:10.37,2013-01-10 10:05:00,
2013-01-10 05:10:00,25.3,-3.3,30.42,SSE,157,0.0,0.0,28,0.00,CLR,,0.00,WeatherDisplay:10.37,2013-01-10 10:10:00,
2013-01-10 05:15:00,25.3,-3.3,30.43,SSE,157,0.0,0.0,28,0.00,CLR,,0.00,WeatherDisplay:10.37,2013-01-10 10:15:00,
2013-01-10 05:20:00,25.5,-3.1,30.43,SSE,157,0.0,0.0,28,0.00,CLR,,0.00,WeatherDisplay:10.37,2013-01-10 10:20:00,
2013-01-10 05:25:00,25.7,-3.0,30.44,SSE,157,0.0,0.0,28,0.00,CLR,,0.00,WeatherDisplay:10.37,2013-01-10 10:25:00,
2013-01-10 05:30:00,25.7,-2.2,30.39,SSE,157,0.0,0.0,29,0.00,CLR,,0.00,WeatherDisplay:10.37,2013-01-10 10:30:00,
2013-01-10 05:35:00,25.7,-2.2,30.39,SSE,157,0.0,0.0,29,0.00,CLR,,0.00,WeatherDisplay:10.37,2013-01-10 10:35:00,
2013-01-10 05:40:00,25.9,-2.1,30.45,SSE,157,0.0,0.0,29,0.00,CLR,,0.00,WeatherDisplay:10.37,2013-01-10 10:40:00,
2013-01-10 05:45:00,26.1,-2.7,30.44,SSE,157,0.0,0.0,28,0.00,CLR,,0.00,WeatherDisplay:10.37,2013-01-10 10:45:00,
2013-01-10 05:50:00,25.7,-3.0,30.42,SSE,157,0.0,0.0,28,0.00,CLR,,0.00,WeatherDisplay:10.37,2013-01-10 10:50:00,
2013-01-10 05:55:00,25.9,-2.8,30.42,SSE,157,0.0,0.0,28,0.00,CLR,,0.00,WeatherDisplay:10.37,2013-01-10 10:55:00,
2013-01-10 06:00:00,26.1,-2.7,30.44,SSE,157,0.0,0.0,28,0.00,CLR,,0.00,WeatherDisplay:10.37,2013-01-10 11:00:00,
2013-01-10 06:05:00,26.1,-2.7,30.45,SSE,157,0.0,0.0,28,0.00,CLR,,0.00,WeatherDisplay:10.37,2013-01-10 11:05:00,
2013-01-10 06:10:00,22.8,-5.5,30.45,SSE,157,0.0,0.0,28,0.00,CLR,,0.00,WeatherDisplay:10.37,2013-01-10 11:10:00,
2013-01-10 06:15:00,22.8,-5.5,30.40,SE,135,0.0,0.0,28,0.00,CLR,,0.00,WeatherDisplay:10.37,2013-01-10 11:15:00,
2013-01-10 06:20:00,22.8,-5.5,30.46,SE,135,0.0,0.0,28,0.00,CLR,,0.00,WeatherDisplay:10.37,2013-01-10 11:20:00,
2013-01-10 06:25:00,23.0,-5.3,30.45,SE,135,0.0,0.0,28,0.00,CLR,,0.00,WeatherDisplay:10.37,2013-01-10 11:25:00,
2013-01-10 06:30:00,23.0,-5.3,30.44,SE,135,0.0,0.0,28,0.00,CLR,,0.00,WeatherDisplay:10.37,2013-01-10 11:30:00,
2013-01-10 06:35:00,23.0,-5.3,30.43,SE,135,0.0,0.0,28,0.00,CLR,,0.00,WeatherDisplay:10.37,2013-01-10 11:35:00,
2013-01-10 06:40:00,23.2,-5.2,30.42,SE,135,0.0,0.0,28,0.00,CLR,,0.00,WeatherDisplay:10.37,2013-01-10 11:40:00,
2013-01-10 06:45:00,23.2,-5.2,30.43,SE,135,0.0,0.0,28,0.00,CLR,,0.00,WeatherDisplay:10.37,2013-01-10 11:45:00,
2013-01-10 06:50:00,23.2,-5.2,30.44,SE,135,0.0,0.0,28,0.00,CLR,,0.00,WeatherDisplay:10.37,2013-01-10 11:50:00,
2013-01-10 06:55:00,23.0,-5.3,30.45,SE,135,0.0,0.0,28,0.00,CLR,,0.00,WeatherDisplay:10.37,2013-01-10 11:55:00,
2013-01-10 07:00:00,23.2,-5.2,30.47,SE,135,0.0,0.0,28,0.00,CLR,,0.00,WeatherDisplay:10.37,2013-01-10 12:00:00,
2013-01-10 07:05:00,23.4,-5.0,30.47,SE,135,0.0,0.0,28,0.00,CLR,,0.00,WeatherDisplay:10.37,2013-01-10 12:05:00,
2013-01-10 07:10:00,23.2,-5.2,30.47,SE,135,0.0,0.0,28,0.00,CLR,,0.00,WeatherDisplay:10.37,2013-01-10 12:10:00,
2013-01-10 07:15:00,23.4,-5.0,30.47,SE,135,0.0,0.0,28,0.00,CLR,,0.00,WeatherDisplay:10.37,2013-01-10 12:15:00,
2013-01-10 07:20:00,23.4,-5.0,30.47,SE,135,0.0,0.0,28,0.00,CLR,,0.00,WeatherDisplay:10.37,2013-01-10 12:20:00,
2013-01-10 07:25:00,23.4,-4.3,30.48,SE,135,0.0,0.0,29,0.00,CLR,,0.00,WeatherDisplay:10.37,2013-01-10 12:25:00,
2013-01-10 07:30:00,23.4,-5.0,30.49,SE,135,0.0,0.0,28,0.00,CLR,,0.00,WeatherDisplay:10.37,2013-01-10 12:30:00,
2013-01-10 07:35:00,23.2,-4.4,30.43,SE,135,0.0,0.0,29,0.00,CLR,,0.00,WeatherDisplay:10.37,2013-01-10 12:35:00,
2013-01-10 07:40:00,23.4,-2.9,30.43,SE,135,0.0,0.0,31,0.00,CLR,,0.00,WeatherDisplay:10.37,2013-01-10 12:40:00,
2013-01-10 07:45:00,23.5,-4.1,30.44,ESE,112,0.0,0.0,29,0.00,CLR,,0.00,WeatherDisplay:10.37,2013-01-10 12:45:00,
2013-01-10 07:50:00,23.5,-2.7,30.45,East,90,0.0,0.0,31,0.00,CLR,,0.00,WeatherDisplay:10.37,2013-01-10 12:50:00,
2013-01-10 07:55:00,23.7,-2.6,30.44,East,90,0.0,0.0,31,0.00,CLR,,0.00,WeatherDisplay:10.37,2013-01-10 12:55:00,
2013-01-10 08:00:00,23.5,-2.7,30.46,East,90,0.0,0.0,31,0.00,CLR,,0.00,WeatherDisplay:10.37,2013-01-10 13:00:00,
2013-01-10 08:05:00,23.5,-2.7,30.46,East,90,0.0,0.0,31,0.00,CLR,,0.00,WeatherDisplay:10.37,2013-01-10 13:05:00,
2013-01-10 08:10:00,23.4,-2.9,30.46,East,90,0.0,0.0,31,0.00,CLR,,0.00,WeatherDisplay:10.37,2013-01-10 13:10:00,
2013-01-10 08:15:00,23.4,-2.9,30.48,ESE,112,0.0,0.0,31,0.00,CLR,,0.00,WeatherDisplay:10.37,2013-01-10 13:15:00,
2013-01-10 08:20:00,23.4,-2.9,30.48,ESE,112,0.0,0.0,31,0.00,CLR,,0.00,WeatherDisplay:10.37,2013-01-10 13:20:00,
2013-01-10 08:25:00,23.2,-3.0,30.48,ESE,112,0.0,0.0,31,0.00,CLR,,0.00,WeatherDisplay:10.37,2013-01-10 13:25:00,
2013-01-10 08:30:00,23.2,-3.0,30.49,ESE,112,0.0,0.0,31,0.00,CLR,,0.00,WeatherDisplay:10.37,2013-01-10 13:30:00,
2013-01-10 08:35:00,23.4,-5.0,30.49,ESE,112,0.0,0.0,28,0.00,CLR,,0.00,WeatherDisplay:10.37,2013-01-10 13:35:00,
2013-01-10 08:40:00,23.4,-2.9,30.48,ESE,112,0.0,0.0,31,0.00,CLR,,0.00,WeatherDisplay:10.37,2013-01-10 13:40:00,
2013-01-10 08:45:00,23.4,-3.6,30.45,ESE,112,0.0,0.0,30,0.00,CLR,,0.00,WeatherDisplay:10.37,2013-01-10 13:45:00,
2013-01-10 08:50:00,23.2,-4.4,30.44,ESE,112,0.0,0.0,29,0.00,CLR,,0.00,WeatherDisplay:10.37,2013-01-10 13:50:00,
2013-01-10 08:55:00,23.0,-5.3,30.49,ESE,112,0.0,0.0,28,0.00,CLR,,0.00,WeatherDisplay:10.37,2013-01-10 13:55:00,
2013-01-10 09:00:00,22.8,-5.5,30.48,ESE,112,0.0,0.0,28,0.00,CLR,,0.00,WeatherDisplay:10.37,2013-01-10 14:00:00,
2013-01-10 09:05:00,26.1,-2.7,30.47,ESE,112,0.0,0.0,28,0.00,CLR,,0.00,WeatherDisplay:10.37,2013-01-10 14:05:00,
2013-01-10 09:10:00,25.7,-3.0,30.47,ESE,112,0.0,0.0,28,0.00,CLR,,0.00,WeatherDisplay:10.37,2013-01-10 14:10:00,
2013-01-10 09:15:00,25.5,-3.1,30.48,ENE,67,1.0,1.0,28,0.00,CLR,,0.00,WeatherDisplay:10.37,2013-01-10 14:15:00,
2013-01-10 09:20:00,25.5,-3.1,30.47,NE,45,1.7,1.7,28,0.00,CLR,,0.00,WeatherDisplay:10.37,2013-01-10 14:20:00,
2013-01-10 09:25:00,24.6,-3.9,30.49,ESE,112,1.7,0.0,28,0.00,CLR,,0.00,WeatherDisplay:10.37,2013-01-10 14:25:00,
2013-01-10 09:30:00,26.8,-2.0,30.50,ESE,112,1.7,0.0,28,0.00,CLR,,0.00,WeatherDisplay:10.37,2013-01-10 14:30:00,
2013-01-10 09:35:00,27.1,-0.3,30.43,SE,135,1.7,0.0,30,0.00,CLR,,0.00,WeatherDisplay:10.37,2013-01-10 14:35:00,
2013-01-10 09:40:00,28.4,-0.6,30.49,SE,135,1.7,0.0,28,0.00,CLR,,0.00,WeatherDisplay:10.37,2013-01-10 14:40:00,
2013-01-10 09:45:00,28.9,-0.1,30.48,SE,135,1.7,0.0,28,0.00,CLR,,0.00,WeatherDisplay:10.37,2013-01-10 14:45:00,
2013-01-10 09:50:00,29.5,0.3,30.47,SSE,157,1.7,0.0,28,0.00,CLR,,0.00,WeatherDisplay:10.37,2013-01-10 14:50:00,
2013-01-10 09:55:00,29.8,0.6,30.47,SE,135,1.7,0.0,28,0.00,CLR,,0.00,WeatherDisplay:10.37,2013-01-10 14:55:00,
2013-01-10 10:00:00,30.4,1.1,30.48,SE,135,1.7,0.0,28,0.00,CLR,,0.00,WeatherDisplay:10.37,2013-01-10 15:00:00,
2013-01-10 10:05:00,30.2,0.9,30.48,SSE,157,0.0,0.0,28,0.00,CLR,,0.00,WeatherDisplay:10.37,2013-01-10 15:05:00,
2013-01-10 10:10:00,30.6,1.3,30.49,SSE,157,0.0,0.0,28,0.00,CLR,,0.00,WeatherDisplay:10.37,2013-01-10 15:10:00,
2013-01-10 10:15:00,31.3,1.9,30.49,SSE,157,0.0,0.0,28,0.00,CLR,,0.00,WeatherDisplay:10.37,2013-01-10 15:15:00,
2013-01-10 10:20:00,31.3,1.9,30.48,SSE,157,0.0,0.0,28,0.00,CLR,,0.00,WeatherDisplay:10.37,2013-01-10 15:20:00,
2013-01-10 10:25:00,32.5,3.0,30.46,SE,135,0.3,0.0,28,0.00,CLR,,0.00,WeatherDisplay:10.37,2013-01-10 15:25:00,
2013-01-10 10:31:00,33.3,3.6,30.46,SE,135,2.3,2.3,28,0.00,CLR,,0.00,WeatherDisplay:10.37,2013-01-10 15:31:00,
2013-01-10 10:37:00,34.3,4.5,30.45,SSE,157,2.3,0.0,28,0.00,CLR,,0.00,WeatherDisplay:10.37,2013-01-10 15:37:00,
2013-01-10 10:42:00,35.8,5.8,30.45,SE,135,2.3,0.0,28,0.00,CLR,,0.00,WeatherDisplay:10.37,2013-01-10 15:42:00,
2013-01-10 10:47:00,35.8,5.8,30.46,SE,135,2.3,2.3,28,0.00,CLR,,0.00,WeatherDisplay:10.37,2013-01-10 15:47:00,
2013-01-10 10:53:00,36.9,6.7,30.46,SE,135,2.6,2.6,28,0.00,CLR,,0.00,WeatherDisplay:10.37,2013-01-10 15:53:00,
2013-01-10 10:58:00,37.2,7.1,30.46,SSE,157,2.8,2.8,28,0.00,CLR,,0.00,WeatherDisplay:10.37,2013-01-10 15:58:00,
2013-01-10 11:03:00,37.2,7.1,30.46,ENE,67,2.8,2.8,28,0.00,CLR,,0.00,WeatherDisplay:10.37,2013-01-10 16:03:00,
2013-01-10 11:08:00,37.6,7.4,30.44,East,90,2.8,2.8,28,0.00,CLR,,0.00,WeatherDisplay:10.37,2013-01-10 16:08:00,
2013-01-10 11:13:00,39.0,8.6,30.43,SE,135,2.8,2.8,28,0.00,CLR,,0.00,WeatherDisplay:10.37,2013-01-10 16:13:00,
2013-01-10 11:18:00,41.9,11.1,30.47,SE,135,3.1,3.1,28,0.00,CLR,,0.00,WeatherDisplay:10.37,2013-01-10 16:18:00,
2013-01-10 11:23:00,42.6,11.7,30.47,SSE,157,3.5,3.5,28,0.00,CLR,,0.00,WeatherDisplay:10.37,2013-01-10 16:23:00,
2013-01-10 11:28:00,44.1,13.0,30.41,SSE,157,4.6,4.6,28,0.00,CLR,,0.00,WeatherDisplay:10.37,2013-01-10 16:28:00,
2013-01-10 11:34:00,44.1,13.0,30.41,East,90,4.6,4.6,28,0.00,CLR,,0.00,WeatherDisplay:10.37,2013-01-10 16:34:00,
2013-01-10 11:39:00,44.6,13.5,30.41,SE,135,4.6,4.6,28,0.00,CLR,,0.00,WeatherDisplay:10.37,2013-01-10 16:39:00,
2013-01-10 11:44:00,44.8,13.6,30.41,SSE,157,4.6,4.6,28,0.00,CLR,,0.00,WeatherDisplay:10.37,2013-01-10 16:44:00,
2013-01-10 11:49:00,45.0,13.8,30.40,ESE,112,4.6,4.6,28,0.00,CLR,,0.00,WeatherDisplay:10.37,2013-01-10 16:49:00,
2013-01-10 11:54:00,45.0,13.8,30.44,ESE,112,4.6,4.6,28,0.00,CLR,,0.00,WeatherDisplay:10.37,2013-01-10 16:54:00,
2013-01-10 11:59:00,45.0,13.8,30.43,ESE,112,4.6,4.6,28,0.00,CLR,,0.00,WeatherDisplay:10.37,2013-01-10 16:59:00,
2013-01-10 12:04:00,46.0,14.7,30.44,SE,135,3.5,4.9,28,0.00,CLR,,0.00,WeatherDisplay:10.37,2013-01-10 17:04:00,
2013-01-10 12:09:00,46.0,14.7,30.44,SE,135,4.9,4.9,28,0.00,CLR,,0.00,WeatherDisplay:10.37,2013-01-10 17:09:00,
2013-01-10 12:14:00,46.6,15.2,30.44,SW,225,5.8,5.8,28,0.00,CLR,,0.00,WeatherDisplay:10.37,2013-01-10 17:14:00,
2013-01-10 12:19:00,46.2,14.9,30.43,South,180,5.8,5.8,28,0.00,CLR,,0.00,WeatherDisplay:10.37,2013-01-10 17:19:00,
2013-01-10 12:24:00,46.2,14.9,30.38,SE,135,5.8,5.8,28,0.00,CLR,,0.00,WeatherDisplay:10.37,2013-01-10 17:24:00,
2013-01-10 12:29:00,46.4,15.0,30.37,SW,225,5.8,5.8,28,0.00,CLR,,0.00,WeatherDisplay:10.37,2013-01-10 17:29:00,
2013-01-10 12:34:00,47.3,15.8,30.37,SE,135,5.8,5.8,28,0.00,CLR,,0.00,WeatherDisplay:10.37,2013-01-10 17:34:00,
2013-01-10 12:39:00,47.5,15.9,30.36,SE,135,5.8,5.8,28,0.00,CLR,,0.00,WeatherDisplay:10.37,2013-01-10 17:39:00,
2013-01-10 12:44:00,47.3,15.8,30.36,SE,135,5.8,5.8,28,0.00,CLR,,0.00,WeatherDisplay:10.37,2013-01-10 17:44:00,
2013-01-10 12:49:00,46.6,15.2,30.36,SSE,157,5.8,5.8,28,0.00,CLR,,0.00,WeatherDisplay:10.37,2013-01-10 17:49:00,
2013-01-10 12:54:00,46.4,15.0,30.36,SE,135,5.8,5.8,28,0.00,CLR,,0.00,WeatherDisplay:10.37,2013-01-10 17:54:00,
2013-01-10 12:59:00,46.2,14.9,30.36,SSE,157,5.8,5.8,28,0.00,CLR,,0.00,WeatherDisplay:10.37,2013-01-10 17:59:00,
2013-01-10 13:04:00,46.4,15.0,30.40,ESE,112,4.9,4.9,28,0.00,CLR,,0.00,WeatherDisplay:10.37,2013-01-10 18:04:00,
2013-01-10 13:09:00,45.5,14.2,30.38,SSW,202,4.9,4.9,28,0.00,CLR,,0.00,WeatherDisplay:10.37,2013-01-10 18:09:00,
2013-01-10 13:14:00,44.1,13.0,30.37,SE,135,4.9,4.9,28,0.00,CLR,,0.00,WeatherDisplay:10.37,2013-01-10 18:14:00,
2013-01-10 13:19:00,43.0,12.0,30.35,ENE,67,4.9,4.9,28,0.00,CLR,,0.00,WeatherDisplay:10.37,2013-01-10 18:19:00,
2013-01-10 13:24:00,43.0,12.0,30.35,ENE,67,4.9,4.9,28,0.00,CLR,,0.00,WeatherDisplay:10.37,2013-01-10 18:24:00,
2013-01-10 13:29:00,42.6,11.7,30.35,South,180,4.9,4.9,28,0.00,CLR,,0.00,WeatherDisplay:10.37,2013-01-10 18:29:00,
2013-01-10 13:34:00,42.6,11.7,30.36,South,180,5.8,5.8,28,0.00,CLR,,0.00,WeatherDisplay:10.37,2013-01-10 18:34:00,
2013-01-10 13:39:00,42.6,11.7,30.36,SSE,157,5.8,5.8,28,0.00,CLR,,0.00,WeatherDisplay:10.37,2013-01-10 18:39:00,
2013-01-10 13:44:00,42.6,11.7,30.36,SE,135,5.8,5.8,28,0.00,CLR,,0.00,WeatherDisplay:10.37,2013-01-10 18:44:00,
2013-01-10 13:49:00,42.6,11.7,30.37,SSW,202,5.8,5.8,28,0.00,CLR,,0.00,WeatherDisplay:10.37,2013-01-10 18:49:00,
2013-01-10 13:54:00,42.8,11.9,30.36,East,90,5.8,5.8,28,0.00,CLR,,0.00,WeatherDisplay:10.37,2013-01-10 18:54:00,
2013-01-10 13:59:00,42.8,11.9,30.35,SE,135,5.8,5.8,28,0.00,CLR,,0.00,WeatherDisplay:10.37,2013-01-10 18:59:00,
2013-01-10 14:04:00,42.6,11.7,30.33,SSE,157,4.9,4.9,28,0.00,CLR,,0.00,WeatherDisplay:10.37,2013-01-10 19:04:00,
2013-01-10 14:09:00,42.6,11.7,30.33,SSE,157,4.9,4.9,28,0.00,CLR,,0.00,WeatherDisplay:10.37,2013-01-10 19:09:00,
2013-01-10 14:14:00,42.4,11.6,30.33,ESE,112,4.9,4.9,28,0.00,CLR,,0.00,WeatherDisplay:10.37,2013-01-10 19:14:00,
2013-01-10 14:19:00,42.3,11.4,30.33,ESE,112,4.9,4.9,28,0.00,CLR,,0.00,WeatherDisplay:10.37,2013-01-10 19:19:00,
2013-01-10 14:24:00,42.3,11.4,30.34,SSE,157,4.9,4.9,28,0.00,CLR,,0.00,WeatherDisplay:10.37,2013-01-10 19:24:00,
2013-01-10 14:29:00,42.3,11.4,30.34,South,180,4.9,4.9,28,0.00,CLR,,0.00,WeatherDisplay:10.37,2013-01-10 19:29:00,
2013-01-10 14:34:00,42.4,11.6,30.34,ESE,112,4.9,4.9,28,0.00,CLR,,0.00,WeatherDisplay:10.37,2013-01-10 19:34:00,
2013-01-10 14:39:00,42.4,11.6,30.34,SE,135,5.8,5.8,28,0.00,CLR,,0.00,WeatherDisplay:10.37,2013-01-10 19:39:00,
2013-01-10 14:45:00,42.3,11.4,30.35,SE,129,3.0,6.0,28,0.00,CLR,CLR,0.00,WeatherDisplay:10.37,2013-01-10 19:45:00,
2013-01-10 14:50:00,41.9,11.1,30.34,ESE,104,5.0,6.0,28,0.00,CLR,CLR,0.00,WeatherDisplay:10.37,2013-01-10 19:50:00,
2013-01-10 14:55:00,41.5,10.8,30.33,ESE,116,5.0,6.0,28,0.00,CLR,CLR,0.00,WeatherDisplay:10.37,2013-01-10 19:55:00,
2013-01-10 15:00:00,41.4,10.6,30.33,South,169,5.0,6.0,28,0.00,CLR,CLR,0.00,WeatherDisplay:10.37,2013-01-10 20:00:00,
2013-01-10 15:05:00,41.2,10.5,30.32,South,171,3.0,6.0,28,0.00,CLR,CLR,0.00,WeatherDisplay:10.37,2013-01-10 20:05:00,
2013-01-10 15:10:00,41.0,10.3,30.33,South,180,3.5,3.6,28,0.00,CLR,,0.00,WeatherDisplay:10.37,2013-01-10 20:10:00,
2013-01-10 15:15:00,40.8,10.2,30.33,SE,135,4.7,4.7,28,0.00,CLR,,0.00,WeatherDisplay:10.37,2013-01-10 20:15:00,
2013-01-10 15:20:00,40.8,10.2,30.33,SSE,157,6.1,6.1,28,0.00,CLR,,0.00,WeatherDisplay:10.37,2013-01-10 20:20:00,
2013-01-10 15:25:00,40.8,10.2,30.33,East,90,6.1,6.1,28,0.00,CLR,,0.00,WeatherDisplay:10.37,2013-01-10 20:25:00,
2013-01-10 15:30:00,40.6,10.0,30.32,East,90,6.1,6.1,28,0.00,CLR,,0.00,WeatherDisplay:10.37,2013-01-10 20:30:00,
2013-01-10 15:35:00,40.6,10.0,30.33,SSE,157,6.1,6.1,28,0.00,CLR,,0.00,WeatherDisplay:10.37,2013-01-10 20:35:00,
2013-01-10 15:40:00,40.5,9.9,30.32,ESE,112,6.1,6.1,28,0.00,CLR,,0.00,WeatherDisplay:10.37,2013-01-10 20:40:00,
2013-01-10 15:45:00,40.3,9.7,30.30,ESE,112,6.1,6.1,28,0.00,CLR,,0.00,WeatherDisplay:10.37,2013-01-10 20:45:00,
2013-01-10 15:50:00,40.3,9.7,30.29,SE,135,6.1,6.1,28,0.00,CLR,,0.00,WeatherDisplay:10.37,2013-01-10 20:50:00,
2013-01-10 15:55:00,40.3,9.7,30.28,SE,135,6.1,6.1,28,0.00,CLR,,0.00,WeatherDisplay:10.37,2013-01-10 20:55:00,
2013-01-10 16:00:00,39.9,9.4,30.29,SE,135,6.1,6.1,28,0.00,CLR,,0.00,WeatherDisplay:10.37,2013-01-10 21:00:00,
2013-01-10 16:05:00,39.9,9.4,30.29,ENE,67,4.7,4.7,28,0.00,CLR,,0.00,WeatherDisplay:10.37,2013-01-10 21:05:00,
2013-01-10 16:10:00,39.7,9.2,30.29,SE,135,5.1,5.1,28,0.00,CLR,,0.00,WeatherDisplay:10.37,2013-01-10 21:10:00,
2013-01-10 16:15:00,39.7,9.2,30.29,SSE,157,5.1,5.1,28,0.00,CLR,,0.00,WeatherDisplay:10.37,2013-01-10 21:15:00,
2013-01-10 16:20:00,39.4,8.9,30.29,ESE,112,5.1,5.1,28,0.00,CLR,,0.00,WeatherDisplay:10.37,2013-01-10 21:20:00,
2013-01-10 16:25:00,39.2,8.8,30.29,NE,45,5.8,5.8,28,0.00,CLR,,0.00,WeatherDisplay:10.37,2013-01-10 21:25:00,
2013-01-10 16:30:00,39.0,8.6,30.29,East,90,7.1,7.1,28,0.00,CLR,,0.00,WeatherDisplay:10.37,2013-01-10 21:30:00,
2013-01-10 16:35:00,38.8,8.5,30.28,East,90,7.1,7.1,28,0.00,CLR,,0.00,WeatherDisplay:10.37,2013-01-10 21:35:00,
2013-01-10 16:40:00,38.7,8.3,30.26,SE,135,7.1,7.1,28,0.00,CLR,,0.00,WeatherDisplay:10.37,2013-01-10 21:40:00,
2013-01-10 16:45:00,38.5,8.1,30.25,East,90,7.1,7.1,28,0.00,CLR,,0.00,WeatherDisplay:10.37,2013-01-10 21:45:00,
2013-01-10 16:50:00,38.3,8.0,30.26,SE,135,7.1,7.1,28,0.00,CLR,,0.00,WeatherDisplay:10.37,2013-01-10 21:50:00,
2013-01-10 16:55:00,37.9,7.7,30.26,SE,135,7.1,7.1,28,0.00,CLR,,0.00,WeatherDisplay:10.37,2013-01-10 21:55:00,
2013-01-10 17:00:00,37.9,7.7,30.26,SSE,157,7.1,7.1,28,0.00,CLR,,0.00,WeatherDisplay:10.37,2013-01-10 22:00:00,
2013-01-10 17:05:00,37.8,7.5,30.27,ENE,67,4.9,4.9,28,0.00,CLR,,0.00,WeatherDisplay:10.37,2013-01-10 22:05:00,
2013-01-10 17:10:00,37.6,7.4,30.27,ESE,112,4.9,4.9,28,0.00,CLR,,0.00,WeatherDisplay:10.37,2013-01-10 22:10:00,
2013-01-10 17:15:00,37.4,7.2,30.28,ESE,112,4.9,4.9,28,0.00,CLR,,0.00,WeatherDisplay:10.37,2013-01-10 22:15:00,
2013-01-10 17:20:00,37.2,7.1,30.26,ESE,112,4.9,4.9,28,0.00,CLR,,0.00,WeatherDisplay:10.37,2013-01-10 22:20:00,
2013-01-10 17:25:00,37.0,8.4,30.25,ENE,67,4.9,4.9,30,0.00,CLR,,0.00,WeatherDisplay:10.37,2013-01-10 22:25:00,
2013-01-10 17:30:00,37.0,8.4,30.23,ESE,112,4.9,4.9,30,0.00,CLR,,0.00,WeatherDisplay:10.37,2013-01-10 22:30:00,
2013-01-10 17:35:00,36.7,7.4,30.29,SE,135,4.9,4.9,29,0.00,CLR,,0.00,WeatherDisplay:10.37,2013-01-10 22:35:00,
2013-01-10 17:40:00,36.7,7.4,30.24,SE,135,4.9,4.9,29,0.00,CLR,,0.00,WeatherDisplay:10.37,2013-01-10 22:40:00,
2013-01-10 17:45:00,36.5,6.4,30.25,SE,135,4.9,4.9,28,0.00,CLR,,0.00,WeatherDisplay:10.37,2013-01-10 22:45:00,
2013-01-10 17:50:00,36.5,7.2,30.25,SE,135,4.9,4.9,29,0.00,CLR,,0.00,WeatherDisplay:10.37,2013-01-10 22:50:00,
2013-01-10 17:55:00,36.3,7.0,30.26,SSE,157,4.9,4.9,29,0.00,CLR,,0.00,WeatherDisplay:10.37,2013-01-10 22:55:00,
2013-01-10 18:00:00,36.3,6.3,30.26,SSE,157,4.9,4.9,28,0.00,CLR,,0.00,WeatherDisplay:10.37,2013-01-10 23:00:00,
2013-01-10 18:05:00,36.1,6.1,30.27,South,180,4.9,4.9,28,0.00,CLR,,0.00,WeatherDisplay:10.37,2013-01-10 23:05:00,
2013-01-10 18:10:00,36.0,6.0,30.27,SE,135,4.9,4.9,28,0.00,CLR,,0.00,WeatherDisplay:10.37,2013-01-10 23:10:00,
2013-01-10 18:15:00,36.0,6.0,30.26,ENE,67,4.9,4.9,28,0.00,CLR,,0.00,WeatherDisplay:10.37,2013-01-10 23:15:00,
2013-01-10 18:20:00,35.8,5.8,30.26,ESE,112,4.9,4.9,28,0.00,CLR,,0.00,WeatherDisplay:10.37,2013-01-10 23:20:00,
2013-01-10 18:25:00,35.6,6.4,30.24,East,90,4.9,4.9,29,0.00,CLR,,0.00,WeatherDisplay:10.37,2013-01-10 23:25:00,
2013-01-10 18:30:00,35.6,6.4,30.24,SSE,157,4.9,4.9,29,0.00,CLR,,0.00,WeatherDisplay:10.37,2013-01-10 23:30:00,
2013-01-10 18:35:00,35.6,6.4,30.23,East,90,4.9,4.9,29,0.00,CLR,,0.00,WeatherDisplay:10.37,2013-01-10 23:35:00,
2013-01-10 18:40:00,35.4,6.3,30.24,SE,135,6.9,6.9,29,0.00,CLR,,0.00,WeatherDisplay:10.37,2013-01-10 23:40:00,
2013-01-10 18:45:00,35.4,6.3,30.24,SE,135,6.9,6.9,29,0.00,CLR,,0.00,WeatherDisplay:10.37,2013-01-10 23:45:00,
2013-01-10 18:50:00,35.4,6.3,30.25,ESE,112,6.9,6.9,29,0.00,CLR,,0.00,WeatherDisplay:10.37,2013-01-10 23:50:00,
2013-01-10 18:55:00,35.4,6.3,30.25,ESE,112,6.9,6.9,29,0.00,CLR,,0.00,WeatherDisplay:10.37,2013-01-10 23:55:00,
2013-01-10 19:00:00,35.4,6.3,30.25,SE,135,6.9,6.9,29,0.00,CLR,,0.00,WeatherDisplay:10.37,2013-01-11 00:00:00,
2013-01-10 19:05:00,35.4,6.3,30.25,East,90,4.6,4.6,29,0.00,CLR,,0.00,WeatherDisplay:10.37,2013-01-11 00:05:00,
2013-01-10 19:10:00,35.2,6.1,30.25,ESE,112,4.9,4.9,29,0.00,CLR,,0.00,WeatherDisplay:10.37,2013-01-11 00:10:00,
2013-01-10 19:15:00,35.1,6.7,30.24,SE,135,4.9,4.9,30,0.00,CLR,,0.00,WeatherDisplay:10.37,2013-01-11 00:15:00,
2013-01-10 19:20:00,35.1,6.7,30.23,East,90,5.8,5.8,30,0.00,CLR,,0.00,WeatherDisplay:10.37,2013-01-11 00:20:00,
2013-01-10 19:25:00,35.1,6.7,30.21,SE,135,5.8,5.8,30,0.00,CLR,,0.00,WeatherDisplay:10.37,2013-01-11 00:25:00,
2013-01-10 19:30:00,35.1,6.7,30.20,SE,135,5.8,5.8,30,0.00,CLR,,0.00,WeatherDisplay:10.37,2013-01-11 00:30:00,
2013-01-10 19:35:00,34.9,6.5,30.19,SE,135,7.1,7.1,30,0.00,CLR,,0.00,WeatherDisplay:10.37,2013-01-11 00:35:00,
2013-01-10 19:40:00,34.7,6.4,30.20,SSE,157,7.1,7.1,30,0.00,CLR,,0.00,WeatherDisplay:10.37,2013-01-11 00:40:00,
2013-01-10 19:45:00,34.7,6.4,30.20,ENE,67,7.1,7.1,30,0.00,CLR,,0.00,WeatherDisplay:10.37,2013-01-11 00:45:00,
2013-01-10 19:50:00,34.7,6.4,30.21,SE,135,7.1,7.1,30,0.00,CLR,,0.00,WeatherDisplay:10.37,2013-01-11 00:50:00,
2013-01-10 19:55:00,34.7,6.4,30.22,SE,135,7.1,7.1,30,0.00,CLR,,0.00,WeatherDisplay:10.37,2013-01-11 00:55:00,
2013-01-10 20:00:00,34.5,6.2,30.23,SSE,157,7.1,7.1,30,0.00,CLR,,0.00,WeatherDisplay:10.37,2013-01-11 01:00:00,
2013-01-10 20:05:00,34.7,6.4,30.23,NNW,337,4.6,4.6,30,0.00,CLR,,0.00,WeatherDisplay:10.37,2013-01-11 01:05:00,
2013-01-10 20:10:00,34.7,6.4,30.20,ESE,112,4.6,4.7,30,0.00,CLR,,0.00,WeatherDisplay:10.37,2013-01-11 01:10:00,
2013-01-10 20:15:00,34.7,6.4,30.19,ESE,112,4.7,4.7,30,0.00,CLR,,0.00,WeatherDisplay:10.37,2013-01-11 01:15:00,
2013-01-10 20:20:00,34.7,6.4,30.19,ESE,112,4.7,4.7,30,0.00,CLR,,0.00,WeatherDisplay:10.37,2013-01-11 01:20:00,
2013-01-10 20:25:00,34.7,6.4,30.20,SSE,157,5.9,5.9,30,0.00,CLR,,0.00,WeatherDisplay:10.37,2013-01-11 01:25:00,
2013-01-10 20:30:00,34.7,5.6,30.20,South,180,5.9,5.9,29,0.00,CLR,,0.00,WeatherDisplay:10.37,2013-01-11 01:30:00,
2013-01-10 20:35:00,34.7,5.6,30.20,ESE,112,5.9,5.9,29,0.00,CLR,,0.00,WeatherDisplay:10.37,2013-01-11 01:35:00,
2013-01-10 20:40:00,34.7,5.6,30.20,SE,135,5.9,5.9,29,0.00,CLR,,0.00,WeatherDisplay:10.37,2013-01-11 01:40:00,
2013-01-10 20:45:00,34.7,5.6,30.20,SSE,157,5.9,5.9,29,0.00,CLR,,0.00,WeatherDisplay:10.37,2013-01-11 01:45:00,
2013-01-10 20:51:00,34.7,5.6,30.21,ESE,112,5.9,5.9,29,0.00,CLR,,0.00,WeatherDisplay:10.37,2013-01-11 01:51:00,
2013-01-10 20:56:00,34.7,5.6,30.19,SE,135,5.9,5.9,29,0.00,CLR,,0.00,WeatherDisplay:10.37,2013-01-11 01:56:00,
2013-01-10 21:01:00,34.7,5.6,30.17,ESE,112,5.9,5.9,29,0.00,CLR,,0.00,WeatherDisplay:10.37,2013-01-11 02:01:00,
2013-01-10 21:06:00,34.7,5.6,30.16,SE,135,5.9,5.9,29,0.00,CLR,,0.00,WeatherDisplay:10.37,2013-01-11 02:06:00,
2013-01-10 21:11:00,34.7,5.6,30.15,SE,135,5.9,5.9,29,0.00,CLR,,0.00,WeatherDisplay:10.37,2013-01-11 02:11:00,
2013-01-10 21:16:00,34.9,5.8,30.15,South,180,5.9,5.9,29,0.00,CLR,,0.00,WeatherDisplay:10.37,2013-01-11 02:16:00,
2013-01-10 21:21:00,34.9,5.0,30.16,ESE,112,5.9,5.9,28,0.00,CLR,,0.00,WeatherDisplay:10.37,2013-01-11 02:21:00,
2013-01-10 21:26:00,34.9,5.8,30.16,ESE,112,5.9,5.9,29,0.00,CLR,,0.00,WeatherDisplay:10.37,2013-01-11 02:26:00,
2013-01-10 21:31:00,35.1,5.2,30.15,SE,135,5.9,5.9,28,0.00,CLR,,0.00,WeatherDisplay:10.37,2013-01-11 02:31:00,
2013-01-10 21:36:00,35.1,5.2,30.16,SSE,157,5.9,5.9,28,0.00,CLR,,0.00,WeatherDisplay:10.37,2013-01-11 02:36:00,
2013-01-10 21:41:00,35.1,5.9,30.16,SSE,157,5.9,5.9,29,0.00,CLR,,0.00,WeatherDisplay:10.37,2013-01-11 02:41:00,
2013-01-10 21:47:00,35.1,5.9,30.16,ENE,67,5.9,5.9,29,0.00,CLR,,0.00,WeatherDisplay:10.37,2013-01-11 02:47:00,
2013-01-10 21:53:00,35.1,5.9,30.17,South,180,5.9,5.9,29,0.00,CLR,,0.00,WeatherDisplay:10.37,2013-01-11 02:53:00,
2013-01-10 21:58:00,35.2,6.1,30.17,SE,135,5.9,6.1,29,0.00,CLR,,0.00,WeatherDisplay:10.37,2013-01-11 02:58:00,
2013-01-10 22:03:00,35.2,6.1,30.17,SE,135,8.1,8.1,29,0.00,CLR,,0.00,WeatherDisplay:10.37,2013-01-11 03:03:00,
2013-01-10 22:08:00,35.4,6.3,30.16,South,180,8.1,8.1,29,0.00,CLR,,0.00,WeatherDisplay:10.37,2013-01-11 03:08:00,
2013-01-10 22:13:00,35.4,6.3,30.17,SE,135,8.1,8.1,29,0.00,CLR,,0.00,WeatherDisplay:10.37,2013-01-11 03:13:00,
2013-01-10 22:18:00,35.4,6.3,30.16,East,90,8.1,8.1,29,0.00,CLR,,0.00,WeatherDisplay:10.37,2013-01-11 03:18:00,
2013-01-10 22:23:00,35.2,6.1,30.10,SE,135,8.1,8.1,29,0.00,CLR,,0.00,WeatherDisplay:10.37,2013-01-11 03:23:00,
2013-01-10 22:28:00,35.1,5.9,30.09,ESE,112,8.1,8.1,29,0.00,CLR,,0.00,WeatherDisplay:10.37,2013-01-11 03:28:00,
2013-01-10 22:33:00,35.1,5.9,30.14,SSE,157,8.1,8.1,29,0.00,CLR,,0.00,WeatherDisplay:10.37,2013-01-11 03:33:00,
2013-01-10 22:38:00,35.1,5.2,30.12,SSE,157,8.1,8.1,28,0.00,CLR,,0.00,WeatherDisplay:10.37,2013-01-11 03:38:00,
2013-01-10 22:43:00,35.1,5.9,30.11,South,180,8.1,8.1,29,0.00,CLR,,0.00,WeatherDisplay:10.37,2013-01-11 03:43:00,
2013-01-10 22:48:00,35.1,5.9,30.09,SSE,157,8.1,8.1,29,0.00,CLR,,0.00,WeatherDisplay:10.37,2013-01-11 03:48:00,
2013-01-10 22:53:00,34.9,5.0,30.08,East,90,8.1,8.1,28,0.00,CLR,,0.00,WeatherDisplay:10.37,2013-01-11 03:53:00,
2013-01-10 22:58:00,34.9,5.8,30.08,SE,135,8.1,8.1,29,0.00,CLR,,0.00,WeatherDisplay:10.37,2013-01-11 03:58:00,
2013-01-10 23:03:00,34.7,5.6,30.09,ESE,112,4.6,4.6,29,0.04,RA,,0.04,WeatherDisplay:10.37,2013-01-11 04:03:00,
2013-01-10 23:08:00,34.7,4.9,30.09,ESE,112,4.6,4.6,28,0.04,RA,,0.04,WeatherDisplay:10.37,2013-01-11 04:08:00,
2013-01-10 23:13:00,34.7,5.6,30.11,West,270,5.1,5.1,29,0.04,CLR,,0.04,WeatherDisplay:10.37,2013-01-11 04:13:00,
2013-01-10 23:18:00,34.7,5.6,30.10,ENE,67,5.1,5.1,29,0.04,CLR,,0.04,WeatherDisplay:10.37,2013-01-11 04:18:00,
2013-01-10 23:23:00,34.7,5.6,30.10,ENE,67,5.1,5.1,29,0.04,CLR,,0.04,WeatherDisplay:10.37,2013-01-11 04:23:00,
2013-01-10 23:28:00,34.7,5.6,30.08,WSW,247,5.1,5.1,29,0.04,CLR,,0.04,WeatherDisplay:10.37,2013-01-11 04:28:00,
2013-01-10 23:33:00,34.7,4.9,30.05,ESE,112,6.1,6.1,28,0.04,CLR,,0.04,WeatherDisplay:10.37,2013-01-11 04:33:00,
2013-01-10 23:38:00,34.7,5.6,30.05,ESE,112,6.1,6.1,29,0.04,CLR,,0.04,WeatherDisplay:10.37,2013-01-11 04:38:00,
2013-01-10 23:43:00,34.5,5.5,30.05,SSE,157,6.1,6.1,29,0.08,RA,,0.08,WeatherDisplay:10.37,2013-01-11 04:43:00,
2013-01-10 23:48:00,34.5,4.7,30.05,ESE,112,6.9,6.9,28,0.08,RA,,0.08,WeatherDisplay:10.37,2013-01-11 04:48:00,
2013-01-10 23:53:00,34.5,5.5,30.05,South,180,6.9,6.9,29,0.08,CLR,,0.08,WeatherDisplay:10.37,2013-01-11 04:53:00,
2013-01-10 23:58:00,34.5,4.7,30.05,SSE,157,6.9,6.9,28,0.08,CLR,,0.08,WeatherDisplay:10.37,2013-01-11 04:58:00,